Precipitable_Water
0.48 0.48 0.49 0.50 0.49 0.49 0.49 0.50 0.51 0.49 0.46 0.45 0.45 0.51 0.53 0.49 0.69 0.84 0.97 1.03 1.13 1.04 0.88 0.74 0.77 0.77 0.78 0.64 0.67 0.96 0.95 0.94 1.02 1.06 0.88 0.70 0.54 0.49 0.39 0.40 0.41 0.41 0.42 0.45 0.47 0.50 0.49
0.51 0.51 0.52 0.51 0.51 0.52 0.53 0.53 0.52 0.50 0.49 0.48 0.45 0.50 0.53 0.52 0.54 0.87 0.99 1.03 1.11 1.06 0.94 0.79 0.78 0.82 0.69 0.49 0.86 0.94 0.88 0.87 0.88 0.95 0.93 0.84 0.68 0.63 0.53 0.50 0.45 0.50 0.46 0.44 0.47 0.43 0.44
0.56 0.56 0.58 0.55 0.53 0.54 0.56 0.56 0.53 0.52 0.51 0.50 0.46 0.49 0.55 0.55 0.52 0.73 0.96 1.01 1.05 1.08 1.00 0.82 0.81 0.79 0.64 0.56 0.77 0.82 0.84 0.85 0.97 0.92 0.91 0.97 0.89 0.69 0.63 0.49 0.55 0.51 0.41 0.44 0.42 0.43 0.43
0.60 0.60 0.57 0.53 0.57 0.61 0.63 0.58 0.57 0.58 0.54 0.53 0.48 0.52 0.54 0.58 0.55 0.61 0.80 0.94 1.02 1.09 1.03 0.87 0.80 0.75 0.54 0.79 0.86 0.75 0.79 0.87 0.95 1.05 0.98 1.03 0.96 0.80 0.70 0.67 0.54 0.43 0.42 0.30 0.40 0.44 0.47
0.57 0.59 0.57 0.57 0.60 0.59 0.59 0.60 0.59 0.62 0.60 0.58 0.50 0.49 0.55 0.61 0.61 0.55 0.65 0.88 0.94 1.10 1.03 0.94 0.71 0.63 0.48 0.74 0.64 0.75 0.78 0.79 0.82 0.91 1.05 1.08 0.92 0.71 0.66 0.51 0.41 0.43 0.31 0.34 0.38 0.48 0.45
0.57 0.58 0.60 0.60 0.59 0.60 0.59 0.62 0.61 0.59 0.58 0.58 0.55 0.54 0.59 0.64 0.63 0.58 0.57 0.80 1.00 1.13 0.99 0.97 0.77 0.53 0.55 0.51 0.67 0.70 0.79 0.87 0.72 0.76 0.75 0.76 0.69 0.55 0.53 0.46 0.29 0.32 0.33 0.35 0.33 0.39 0.41
0.61 0.59 0.58 0.56 0.58 0.59 0.61 0.62 0.60 0.61 0.58 0.59 0.60 0.62 0.66 0.66 0.63 0.59 0.55 0.68 0.78 0.72 0.82 0.61 0.54 0.50 0.55 0.63 0.73 0.67 0.76 0.80 0.74 0.67 0.50 0.59 0.46 0.39 0.43 0.45 0.41 0.36 0.31 0.29 0.34 0.39 0.33
0.56 0.53 0.52 0.55 0.56 0.59 0.61 0.60 0.60 0.61 0.60 0.60 0.60 0.63 0.67 0.64 0.60 0.58 0.54 0.56 0.71 0.81 0.59 0.72 0.63 0.60 0.60 0.63 0.52 0.64 0.77 0.59 0.57 0.46 0.52 0.45 0.35 0.44 0.45 0.41 0.36 0.32 0.28 0.26 0.30 0.32 0.29
0.51 0.57 0.56 0.55 0.55 0.59 0.59 0.60 0.60 0.60 0.61 0.63 0.56 0.63 0.68 0.68 0.62 0.58 0.48 0.64 0.85 0.92 0.59 0.62 0.65 0.55 0.56 0.60 0.49 0.54 0.65 0.61 0.53 0.46 0.46 0.39 0.40 0.44 0.37 0.34 0.30 0.29 0.25 0.25 0.25 0.29 0.29
0.55 0.57 0.55 0.56 0.58 0.58 0.60 0.60 0.59 0.58 0.61 0.59 0.55 0.68 0.69 0.73 0.62 0.51 0.45 0.65 0.85 0.90 0.44 0.45 0.54 0.54 0.57 0.57 0.45 0.60 0.62 0.56 0.47 0.39 0.41 0.37 0.42 0.35 0.31 0.29 0.31 0.23 0.33 0.31 0.29 0.26 0.19
0.55 0.56 0.59 0.59 0.59 0.59 0.59 0.56 0.56 0.58 0.58 0.52 0.60 0.67 0.72 0.72 0.61 0.47 0.50 0.70 0.76 0.76 0.24 0.48 0.53 0.69 0.57 0.45 0.49 0.49 0.63 0.53 0.39 0.38 0.37 0.32 0.32 0.32 0.29 0.29 0.35 0.29 0.36 0.32 0.31 0.27 0.25
0.53 0.60 0.59 0.59 0.57 0.57 0.56 0.58 0.57 0.53 0.51 0.56 0.62 0.63 0.68 0.64 0.63 0.60 0.73 0.71 0.74 0.38 0.25 0.41 0.53 0.45 0.41 0.42 0.44 0.50 0.49 0.55 0.50 0.39 0.39 0.36 0.44 0.38 0.35 0.38 0.38 0.40 0.34 0.33 0.32 0.27 0.15
0.55 0.59 0.57 0.56 0.56 0.55 0.56 0.57 0.52 0.51 0.54 0.59 0.60 0.64 0.63 0.68 0.51 0.65 0.81 0.59 0.33 0.26 0.43 0.37 0.39 0.45 0.40 0.33 0.37 0.40 0.38 0.35 0.29 0.25 0.25 0.33 0.33 0.38 0.40 0.33 0.40 0.37 0.30 0.17 0.16 0.16 0.12
0.54 0.57 0.56 0.56 0.54 0.55 0.56 0.53 0.51 0.49 0.55 0.61 0.64 0.65 0.67 0.67 0.72 0.67 0.69 0.45 0.26 0.36 0.36 0.43 0.43 0.42 0.36 0.36 0.35 0.36 0.34 0.30 0.37 0.33 0.27 0.22 0.21 0.33 0.41 0.36 0.31 0.30 0.26 0.15 0.11 0.13 0.16
0.55 0.56 0.57 0.56 0.53 0.55 0.52 0.53 0.45 0.48 0.56 0.64 0.67 0.67 0.68 0.70 0.72 0.69 0.52 0.31 0.34 0.36 0.40 0.38 0.41 0.34 0.35 0.36 0.35 0.34 0.32 0.30 0.33 0.36 0.27 0.25 0.24 0.37 0.42 0.39 0.33 0.28 0.22 0.28 0.21 0.21 0.18
0.55 0.57 0.57 0.54 0.53 0.53 0.49 0.51 0.42 0.52 0.59 0.67 0.61 0.60 0.59 0.73 0.70 0.60 0.43 0.37 0.39 0.46 0.43 0.42 0.32 0.35 0.28 0.32 0.31 0.31 0.30 0.36 0.35 0.41 0.42 0.36 0.25 0.33 0.36 0.37 0.36 0.30 0.35 0.22 0.27 0.17 0.17
0.54 0.56 0.55 0.50 0.53 0.49 0.50 0.46 0.44 0.56 0.62 0.71 0.61 0.45 0.63 0.71 0.63 0.50 0.36 0.40 0.45 0.50 0.50 0.41 0.34 0.32 0.32 0.31 0.34 0.32 0.32 0.37 0.41 0.40 0.44 0.38 0.29 0.28 0.31 0.24 0.22 0.27 0.28 0.32 0.31 0.31 0.22
0.52 0.53 0.53 0.49 0.52 0.45 0.48 0.43 0.51 0.61 0.72 0.69 0.54 0.35 0.65 0.72 0.44 0.46 0.39 0.47 0.50 0.49 0.53 0.45 0.42 0.40 0.34 0.35 0.35 0.34 0.33 0.35 0.43 0.42 0.34 0.38 0.31 0.22 0.22 0.29 0.36 0.37 0.36 0.36 0.29 0.26 0.31
0.51 0.48 0.48 0.45 0.52 0.44 0.48 0.45 0.60 0.68 0.74 0.62 0.46 0.49 0.71 0.69 0.35 0.39 0.48 0.49 0.51 0.48 0.45 0.42 0.40 0.43 0.41 0.35 0.32 0.35 0.36 0.43 0.41 0.39 0.37 0.41 0.31 0.20 0.21 0.31 0.39 0.36 0.39 0.40 0.41 0.39 0.30
0.50 0.48 0.47 0.48 0.51 0.43 0.46 0.48 0.61 0.69 0.75 0.67 0.47 0.38 0.52 0.56 0.56 0.43 0.43 0.45 0.45 0.54 0.48 0.45 0.42 0.44 0.40 0.36 0.40 0.35 0.35 0.41 0.43 0.43 0.47 0.46 0.34 0.21 0.19 0.28 0.37 0.36 0.42 0.46 0.43 0.32 0.32
0.48 0.47 0.46 0.44 0.49 0.42 0.49 0.50 0.60 0.68 0.74 0.65 0.47 0.41 0.49 0.37 0.43 0.45 0.48 0.47 0.43 0.40 0.47 0.48 0.41 0.41 0.40 0.33 0.34 0.35 0.39 0.42 0.45 0.47 0.47 0.44 0.27 0.31 0.36 0.39 0.42 0.43 0.43 0.45 0.42 0.42 0.34
0.47 0.47 0.43 0.42 0.48 0.43 0.50 0.51 0.57 0.67 0.71 0.58 0.43 0.44 0.54 0.47 0.48 0.44 0.45 0.44 0.42 0.43 0.42 0.37 0.38 0.41 0.44 0.39 0.40 0.38 0.41 0.41 0.40 0.49 0.44 0.43 0.32 0.39 0.36 0.43 0.46 0.42 0.47 0.49 0.49 0.46 0.43
0.46 0.43 0.46 0.41 0.45 0.45 0.49 0.50 0.53 0.62 0.69 0.54 0.59 0.61 0.54 0.46 0.44 0.40 0.41 0.43 0.43 0.43 0.44 0.45 0.43 0.43 0.43 0.47 0.53 0.54 0.54 0.52 0.50 0.43 0.39 0.42 0.40 0.36 0.33 0.44 0.43 0.39 0.48 0.50 0.51 0.52 0.48
0.44 0.42 0.41 0.41 0.38 0.40 0.46 0.49 0.49 0.57 0.68 0.64 0.61 0.60 0.48 0.39 0.42 0.40 0.43 0.42 0.39 0.40 0.38 0.44 0.49 0.47 0.57 0.66 0.63 0.59 0.56 0.54 0.53 0.48 0.51 0.43 0.42 0.42 0.37 0.40 0.30 0.46 0.59 0.57 0.53 0.54 0.52
0.44 0.40 0.39 0.38 0.36 0.35 0.39 0.49 0.49 0.50 0.65 0.66 0.67 0.59 0.52 0.41 0.44 0.43 0.42 0.39 0.41 0.46 0.46 0.48 0.54 0.60 0.66 0.58 0.46 0.39 0.41 0.43 0.43 0.52 0.51 0.54 0.47 0.40 0.35 0.34 0.39 0.47 0.53 0.51 0.50 0.49 0.60
0.45 0.40 0.39 0.39 0.36 0.37 0.39 0.47 0.47 0.46 0.59 0.69 0.69 0.71 0.59 0.45 0.41 0.46 0.41 0.42 0.41 0.44 0.47 0.50 0.62 0.68 0.61 0.51 0.42 0.31 0.30 0.34 0.36 0.42 0.55 0.57 0.56 0.45 0.40 0.32 0.29 0.46 0.56 0.62 0.62 0.43 0.62
0.47 0.42 0.38 0.37 0.34 0.31 0.31 0.36 0.44 0.45 0.54 0.65 0.67 0.74 0.63 0.48 0.56 0.55 0.42 0.44 0.52 0.50 0.47 0.53 0.58 0.57 0.63 0.46 0.36 0.32 0.34 0.42 0.34 0.34 0.37 0.43 0.45 0.41 0.39 0.35 0.39 0.51 0.58 0.66 0.42 0.44 0.65
0.48 0.43 0.39 0.38 0.35 0.32 0.32 0.30 0.35 0.43 0.50 0.57 0.66 0.75 0.65 0.54 0.59 0.63 0.60 0.54 0.56 0.56 0.47 0.57 0.54 0.58 0.54 0.43 0.38 0.39 0.38 0.41 0.40 0.42 0.38 0.38 0.38 0.38 0.40 0.35 0.31 0.55 0.55 0.44 0.54 0.62 0.63
0.48 0.45 0.41 0.39 0.36 0.34 0.33 0.34 0.33 0.41 0.46 0.54 0.57 0.71 0.74 0.62 0.62 0.75 0.74 0.74 0.71 0.69 0.63 0.63 0.59 0.58 0.58 0.47 0.46 0.47 0.42 0.44 0.43 0.35 0.47 0.36 0.43 0.43 0.43 0.42 0.56 0.61 0.58 0.63 0.63 0.58 0.63
Wind_Speed
36 35 34 34 34 34 34 33 32 32 32 31 30 30 29 29 29 28 28 27 28 27 27 25 24 23 23 24 26 20 20 25 27 29 28 26 27 27 27 26 26 27 27 25 25 25 25
37 36 36 37 38 37 36 36 35 35 34 34 34 32 31 30 30 28 27 27 29 27 26 26 25 24 24 26 23 22 21 21 26 29 28 27 25 25 24 25 26 20 25 25 25 25 26
38 38 39 40 40 39 39 38 38 37 37 37 36 35 33 32 31 32 29 28 28 29 27 26 25 24 25 25 21 22 23 20 22 28 27 26 24 23 23 24 26 25 25 25 27 27 25
40 40 42 42 42 42 42 41 41 41 41 41 40 37 35 34 33 33 32 30 27 29 27 26 25 24 23 22 24 21 22 22 19 22 27 25 23 22 22 20 20 21 24 23 18 21 24
42 42 44 45 46 46 45 45 44 45 45 44 42 39 36 33 31 31 33 32 31 31 28 26 25 25 23 21 22 23 22 23 22 20 21 22 22 21 21 21 21 24 22 23 22 20 21
43 45 46 48 49 49 48 48 49 49 47 44 40 35 32 32 31 30 32 31 32 31 28 26 25 23 24 23 21 21 22 21 21 22 21 22 20 20 22 22 20 21 25 24 23 18 21
45 47 49 51 51 52 51 51 51 47 41 35 31 27 27 28 28 29 29 29 28 30 32 26 25 22 18 19 20 21 22 21 21 22 21 22 22 23 23 25 24 21 20 22 22 22 26
47 49 51 53 53 54 53 51 47 40 34 29 24 21 20 23 27 28 29 34 29 24 28 27 24 22 21 21 19 22 23 20 21 22 19 19 23 23 21 21 22 22 23 24 23 24 24
49 50 53 54 54 54 52 48 43 36 30 23 20 18 18 22 22 29 33 37 31 26 24 28 26 25 23 22 20 23 25 21 22 23 23 20 16 19 22 20 20 21 22 21 23 24 27
50 52 53 55 55 55 52 46 40 33 25 21 17 17 20 20 15 22 34 35 32 25 23 24 27 25 23 23 19 23 24 19 18 21 20 20 18 16 18 20 19 20 19 22 23 22 20
50 52 54 55 56 55 50 44 38 30 24 18 16 19 22 17 13 19 28 37 30 26 19 24 26 24 28 23 21 22 23 18 18 17 17 14 15 19 18 18 17 17 15 18 20 24 27
51 52 55 56 56 54 48 42 35 29 22 16 18 22 22 14 14 21 29 36 24 22 16 20 23 27 28 27 21 21 24 18 16 17 19 17 14 15 16 17 18 13 17 20 22 22 25
51 52 54 55 55 52 46 40 35 27 18 17 22 25 22 11 13 25 32 30 22 20 22 19 23 26 28 26 23 23 23 21 17 15 17 18 21 16 18 16 16 18 16 16 17 18 23
50 52 54 55 54 50 45 39 31 21 16 20 23 22 7 11 18 30 29 25 21 21 20 18 23 26 24 26 23 23 22 21 22 19 11 15 13 19 15 19 15 19 18 15 18 19 23
49 52 53 54 53 49 44 35 27 20 19 24 24 7 3 14 25 30 28 23 14 25 20 19 22 21 19 27 19 22 22 20 21 20 15 12 12 11 13 15 17 14 18 20 25 28 26
49 51 52 53 51 47 39 32 26 22 24 25 12 3 6 18 27 29 25 13 16 21 22 22 15 17 19 25 20 21 20 20 18 21 18 11 12 12 14 14 17 18 14 13 16 18 22
48 50 51 51 48 44 36 32 26 25 27 19 6 5 11 22 30 27 18 12 20 26 18 12 16 17 16 22 19 21 21 12 20 17 18 14 13 9 11 16 16 16 17 17 18 18 20
47 49 49 49 45 41 36 32 27 27 24 11 10 13 20 25 27 22 15 15 22 19 13 11 13 14 19 21 18 18 16 10 15 15 15 14 11 13 16 15 14 18 17 20 18 19 21
46 47 48 46 42 39 34 30 28 25 21 10 13 16 20 21 21 19 15 17 17 15 11 12 12 12 15 18 13 13 15 11 14 15 13 13 11 10 9 9 16 16 20 24 27 28 30
44 45 45 44 40 37 31 27 26 24 19 10 13 16 16 17 17 21 17 16 15 10 10 11 13 15 14 16 8 13 11 10 13 14 8 11 11 12 11 13 13 15 20 23 24 23 29
42 43 44 42 38 35 29 25 23 22 18 9 15 14 14 16 15 18 16 15 12 10 8 9 11 12 12 11 11 10 10 10 10 11 11 11 10 12 18 21 21 22 24 24 25 27 26
40 40 41 40 35 32 25 23 21 21 16 13 14 12 12 15 16 16 15 14 11 8 8 9 11 11 11 10 9 10 10 11 9 10 12 10 9 10 15 17 16 16 20 20 19 22 22
37 38 39 38 33 28 24 20 17 17 13 10 12 11 10 11 14 13 11 12 10 8 7 8 11 10 10 9 8 8 9 9 8 9 11 9 7 6 8 10 16 8 9 12 13 16 14
34 35 36 36 35 26 22 17 14 13 9 6 8 9 8 10 12 11 10 7 9 8 8 9 10 9 8 7 8 8 9 10 11 12 10 8 7 5 7 9 3 7 10 10 11 14 17
32 33 34 35 34 29 21 16 11 9 8 3 8 8 7 8 11 10 9 9 9 9 8 9 9 9 9 8 7 7 6 7 9 13 12 12 8 4 3 6 10 7 10 10 10 12 18
30 31 32 33 33 31 23 16 11 7 4 2 8 8 8 8 8 8 11 10 10 10 10 9 9 9 10 9 8 7 6 5 7 6 6 8 10 8 4 4 3 7 10 8 6 10 16
28 29 30 32 32 31 27 18 12 7 5 4 7 7 11 9 7 7 11 11 11 10 8 8 8 9 9 9 9 8 8 6 7 7 7 5 5 8 7 4 5 6 9 6 6 9 13
27 28 30 31 32 32 30 23 13 10 9 7 10 8 8 9 9 8 10 10 11 11 9 8 7 8 8 9 9 8 8 8 8 8 7 8 7 5 4 3 3 6 8 7 8 9 7
26 28 29 30 32 32 30 26 17 12 13 12 13 10 8 10 9 9 11 11 11 10 9 8 6 7 8 7 9 8 8 8 7 7 8 8 9 4 5 3 7 9 8 9 8 8 6
Wind_Direction
346 344 341 337 334 329 324 320 316 312 309 305 299 291 284 277 268 265 258 254 244 243 241 238 236 234 231 231 237 233 232 229 226 223 224 224 225 227 230 232 233 238 242 242 247 247 247
343 341 339 336 332 327 323 320 316 312 308 304 298 290 285 277 267 261 256 252 241 241 238 234 233 231 230 233 232 232 232 230 225 220 222 224 228 229 236 233 231 240 242 247 246 247 247
342 340 338 336 332 328 324 319 316 312 308 304 299 289 284 275 266 254 253 249 243 236 235 232 229 228 231 230 232 230 227 228 224 219 219 222 226 227 234 235 235 242 246 248 246 245 244
339 338 337 335 333 329 325 321 315 311 308 303 298 288 281 275 264 253 249 245 243 232 230 228 226 227 232 228 230 228 223 221 219 216 219 220 223 227 232 232 234 239 242 246 240 239 243
338 336 335 334 332 329 325 321 317 313 309 304 298 289 278 271 261 253 244 240 235 227 224 223 223 224 230 225 224 221 220 218 217 214 212 215 219 225 229 233 235 234 242 234 241 237 243
336 335 334 333 331 328 325 321 317 313 308 304 298 288 276 267 258 251 240 235 227 219 216 217 222 220 224 222 216 215 214 213 212 207 210 216 222 225 226 225 231 236 234 241 247 238 246
336 335 334 333 331 329 326 322 319 316 312 308 302 293 280 268 258 246 235 218 208 211 211 214 212 217 211 210 208 208 206 205 207 209 214 216 222 224 227 230 241 244 248 250 251 254 262
336 335 335 334 332 330 328 326 323 320 315 311 308 302 290 281 258 240 225 207 210 209 206 212 209 210 208 203 204 202 200 204 205 208 206 215 225 228 235 239 240 244 249 252 259 261 263
337 336 336 335 335 333 331 329 326 322 317 311 310 309 301 295 265 240 217 201 201 199 205 205 204 204 203 204 202 197 202 208 209 211 213 218 224 228 230 231 237 240 248 256 260 269 269
337 337 338 338 337 335 333 331 328 324 316 310 306 313 314 304 271 217 202 200 196 195 200 197 206 206 200 201 204 198 200 202 208 211 211 223 221 224 226 232 238 249 254 259 262 267 265
338 339 339 339 338 337 336 333 330 326 316 307 302 309 318 299 253 206 192 189 188 190 198 189 196 199 197 198 187 199 198 205 205 204 205 216 223 226 232 238 241 253 258 263 267 269 277
340 340 340 340 340 339 338 336 334 328 318 306 305 309 310 298 220 193 181 178 181 191 195 193 195 194 191 199 198 192 198 209 211 214 219 230 227 231 236 241 241 258 263 267 268 272 270
342 342 342 343 343 342 341 339 336 331 322 315 313 311 302 247 197 180 172 172 183 197 185 188 192 190 190 194 195 197 200 204 207 212 224 234 237 237 240 243 248 250 265 273 269 265 270
343 344 345 345 345 345 344 343 343 342 337 330 325 320 287 195 176 167 168 170 186 178 178 185 178 181 191 187 198 197 200 207 214 219 223 225 230 224 233 242 253 248 252 265 274 270 285
346 346 346 347 348 347 347 349 351 349 342 336 330 327 145 163 163 163 163 172 178 173 171 168 165 178 187 192 196 199 207 210 215 216 223 224 244 243 237 247 242 254 255 266 279 281 281
347 347 348 349 350 350 352 354 354 351 345 345 348 67 147 162 164 160 164 162 174 167 164 162 172 187 186 188 192 198 201 213 215 217 223 240 250 243 244 251 249 254 278 274 270 283 284
348 349 350 351 353 354 356 357 357 352 346 348 15 131 137 147 158 160 161 150 149 154 161 172 174 178 182 185 193 194 198 201 209 212 219 233 246 243 248 245 246 249 265 269 281 275 290
349 351 352 353 355 357 358 359 356 353 357 16 85 115 136 146 151 157 153 160 153 160 169 162 162 172 175 177 184 192 198 210 210 212 218 226 246 254 252 258 260 261 259 258 271 279 282
350 352 353 355 357 358 359 3 6 8 17 60 107 119 134 146 155 156 142 147 150 162 167 171 163 168 169 173 183 196 202 207 206 207 211 214 243 260 252 267 259 264 270 270 273 280 276
351 354 355 356 358 0 4 6 12 17 24 77 123 123 131 145 150 152 151 153 153 146 146 157 168 167 168 178 188 190 192 203 207 216 230 223 244 242 262 288 294 277 278 279 275 281 283
352 354 356 358 359 2 7 11 15 17 26 104 127 126 136 148 148 150 154 155 157 164 164 170 172 182 189 193 199 202 201 202 212 220 228 237 248 260 269 278 284 286 287 285 280 278 278
352 354 358 360 1 4 8 13 18 23 36 96 136 129 128 149 148 150 157 170 177 174 188 187 180 181 190 192 199 205 207 219 227 222 223 234 257 274 282 281 284 293 296 294 288 289 286
352 354 358 1 1 3 6 9 16 23 41 98 140 139 147 146 162 158 166 171 179 183 186 178 183 186 189 196 212 215 223 237 241 215 216 236 244 274 275 309 308 305 330 327 314 318 305
350 353 356 360 1 358 359 3 10 21 41 102 142 155 156 162 170 172 171 180 184 194 182 185 188 197 192 200 213 219 231 239 236 232 228 226 227 256 283 311 296 349 341 333 333 330 341
348 350 354 357 359 358 352 354 356 5 21 141 157 161 162 164 175 184 189 195 187 189 187 188 191 195 200 209 218 226 223 230 227 222 223 223 229 259 263 317 292 327 353 350 2 0 5
344 347 351 354 355 357 351 343 340 332 350 153 184 183 187 186 194 207 208 205 198 193 194 201 204 211 210 214 216 224 226 225 196 187 205 224 227 226 270 299 313 15 1 0 17 23 18
339 342 346 349 351 352 350 334 323 296 267 230 198 202 201 199 205 212 202 199 195 199 200 196 201 203 208 211 218 221 224 221 219 207 196 194 203 218 234 255 286 328 357 4 3 3 8
334 337 341 344 346 347 347 340 311 279 247 232 215 205 202 212 228 217 203 197 196 200 200 189 197 204 206 215 218 222 221 224 227 223 210 204 197 205 199 222 285 352 340 348 340 329 342
330 333 336 339 340 342 342 340 320 270 240 227 213 211 215 212 219 213 206 207 201 196 193 194 205 207 213 220 221 224 227 224 232 224 214 221 216 221 212 251 306 314 311 327 333 321 314